Flag for Germany Weather past 2 weeks in Friedrichshafen, Baden-Württemberg, Germany

Now
61 °F

Clear.


Feels Like: 61 °F
Forecast: 59 / 66 °F
Wind: No wind

Location: Friedrichshafen Airport

Current Time: Sep 20, 2014 at 10:33:31 PM

Latest Report: Sep 20, 2014 at 10:20 PM


Visibility: 10 mi

Pressure: 30.04 "Hg

Humidity: 88%

Dew point: 57 °F

Location of FriedrichshafenLocation

Historic Weather in Friedrichshafen — Graph

°F

Friedrichshafen temperature yesterday

Maximum temperature yesterday: 75 °F (at 3:20 PM)
Minimum temperature yesterday: 55 °F (at 6:50 AM)
Average temperature yesterday: 64 °F

Past Weeks' High & Low Weather Summary

 TemperatureHumidityPressure
High79 °F (Sep 8, 3:50 PM)94% (Sep 6, 6:20 AM)30.15 "Hg (Sep 6, 6:20 AM)
Low48 °F (Sep 12, 6:20 AM)42% (Sep 7, 5:20 PM)29.86 "Hg (Sep 17, 4:20 PM)
Average62 °F78%30.00 "Hg
* Reported Sep 5 9:20 PM — Sep 20 9:20 PM, Friedrichshafen, Weather by CustomWeather, © 2014

Note: Actual official high and low records may vary slightly from our data, if they occured in-between our weather recording intervals... More about our weather records

Advertising

Friedrichshafen weather history for previous 24 hours

 ConditionsComfort  
Time TempWeatherWind HumidityBarometerVisibility
9:20 PM
Sep 20
63 °FPassing clouds.3 mph83%30.04 "HgN/A
8:50 PM63 °FPassing clouds.1 mph83%30.04 "HgN/A
8:20 PM64 °FScattered clouds.3 mph83%30.04 "HgN/A
7:50 PM64 °FSprinkles. Scattered clouds.2 mph83%30.01 "HgN/A
3:20 PM72 °FPassing clouds.8 mph61%30.04 "HgN/A
2:50 PM70 °FScattered clouds.7 mph64%30.04 "HgN/A
2:20 PM72 °FScattered clouds.7 mph61%30.04 "HgN/A
1:50 PM70 °FScattered clouds.7 mph73%30.04 "HgN/A
1:20 PM70 °FScattered clouds.5 mph64%30.04 "HgN/A
12:50 PM70 °FScattered clouds.6 mph64%30.04 "HgN/A
12:20 PM70 °FPassing clouds.5 mph64%30.04 "HgN/A
11:50 AM68 °FScattered clouds.5 mph73%30.04 "HgN/A
11:20 AM70 °FScattered clouds.2 mph69%30.04 "HgN/A
10:50 AM66 °FScattered clouds.3 mph78%30.04 "HgN/A
10:20 AM63 °FBroken clouds.2 mph88%30.04 "HgN/A
9:50 AM63 °FSprinkles. Broken clouds.3 mph88%30.04 "Hg5 mi
9:20 AM63 °FPartly sunny.2 mph88%30.04 "HgN/A
8:50 AM61 °FSprinkles. Passing clouds.6 mph94%30.04 "Hg4 mi
8:20 AM61 °FLight rain. Passing clouds.3 mph88%30.04 "Hg4 mi
7:50 AM61 °FRain. Mostly cloudy.2 mph94%30.04 "Hg4 mi
7:20 AM61 °FLight rain. Passing clouds.5 mph88%30.04 "Hg4 mi
6:50 AM59 °FClear.No wind88%30.01 "Hg4 mi
6:20 AM59 °FClear.No wind94%30.01 "Hg4 mi
5:50 AM59 °FClear.3 mph94%30.01 "Hg4 mi
5:20 AM59 °FClear.3 mph94%30.01 "Hg6 mi
4:50 AM59 °FOvercast.1 mph94%30.01 "Hg4 mi
4:20 AM59 °FFog.2 mph94%30.01 "Hg3 mi
3:50 AM59 °FFog.2 mph94%30.01 "Hg3 mi
2:50 AM61 °FClear.2 mph88%30.01 "Hg10 mi
2:20 AM61 °FSprinkles. Mostly cloudy.6 mph88%30.01 "Hg4 mi
1:50 AM61 °FClear.1 mph88%30.04 "Hg10 mi
1:20 AM61 °FSprinkles. Overcast.3 mph88%30.04 "Hg5 mi
12:50 AM61 °FSprinkles. Mostly cloudy.1 mph88%30.04 "HgN/A
12:20 AM61 °FLight rain. Clear.No wind88%30.04 "HgN/A
11:50 PM
Sep 19
61 °FClear.No wind88%30.04 "Hg10 mi
11:20 PM59 °FClear.2 mph94%30.01 "Hg6 mi
10:50 PM61 °FClear.1 mph88%30.01 "Hg10 mi
10:20 PM61 °FCool.1 mph88%30.01 "Hg1 mi
Weather by CustomWeather, © 2014

See weather overviewHow to use our weather pages